Time,TemperatureF,DewpointF,PressureIn,WindDirection,WindDirectionDegrees,WindSpeedMPH,WindSpeedGustMPH,Humidity,HourlyPrecipIn,Conditions,Clouds,dailyrainin,SoftwareType,DateUTC
2013-09-17 00:01:00,64.2,61.8,30.19,NW,312,0.0,2.0,92,0.00,,---,0.00,VWS V14.00,2013-09-17 05:01:00,
2013-09-17 00:06:00,64.0,61.6,30.19,NNW,335,1.0,2.0,92,0.00,,---,0.00,VWS V14.00,2013-09-17 05:06:00,
2013-09-17 00:11:00,63.9,61.5,30.19,NNE,19,1.0,2.0,92,0.00,,---,0.00,VWS V14.00,2013-09-17 05:11:00,
2013-09-17 00:16:00,63.9,61.8,30.19,NNW,343,0.0,4.0,93,0.00,,---,0.00,VWS V14.00,2013-09-17 05:16:00,
2013-09-17 00:21:00,63.9,61.8,30.19,North,353,2.0,2.0,93,0.00,,---,0.00,VWS V14.00,2013-09-17 05:21:00,
2013-09-17 00:26:00,63.8,61.7,30.19,NNE,20,2.0,4.0,93,0.00,,---,0.00,VWS V14.00,2013-09-17 05:26:00,
2013-09-17 00:31:00,63.8,61.7,30.19,NNE,30,2.0,4.0,93,0.00,,---,0.00,VWS V14.00,2013-09-17 05:31:00,
2013-09-17 00:36:00,63.7,61.6,30.19,North,358,1.0,1.0,93,0.00,,---,0.00,VWS V14.00,2013-09-17 05:36:00,
2013-09-17 00:41:00,63.6,61.5,30.19,North,8,2.0,3.0,93,0.00,,---,0.00,VWS V14.00,2013-09-17 05:41:00,
2013-09-17 00:47:00,63.5,61.4,30.19,NNE,17,2.0,2.0,93,0.00,,---,0.00,VWS V14.00,2013-09-17 05:47:00,
2013-09-17 00:52:00,63.5,61.4,30.19,NNE,23,2.0,4.0,93,0.00,,---,0.00,VWS V14.00,2013-09-17 05:52:00,
2013-09-17 00:57:00,63.5,61.4,30.19,NNE,19,2.0,3.0,93,0.00,,---,0.00,VWS V14.00,2013-09-17 05:57:00,
2013-09-17 01:02:00,63.7,61.6,30.19,North,360,3.0,4.0,93,0.00,,---,0.00,VWS V14.00,2013-09-17 06:02:00,
2013-09-17 01:07:00,63.9,61.8,30.19,NNE,21,2.0,3.0,93,0.00,,---,0.00,VWS V14.00,2013-09-17 06:07:00,
2013-09-17 01:12:00,64.1,62.0,30.19,NNE,19,3.0,6.0,93,0.00,,---,0.00,VWS V14.00,2013-09-17 06:12:00,
2013-09-17 01:17:00,64.3,62.2,30.19,NNE,21,4.0,5.0,93,0.00,,---,0.00,VWS V14.00,2013-09-17 06:17:00,
2013-09-17 01:22:00,64.5,62.1,30.19,NNE,30,2.0,5.0,92,0.00,,---,0.00,VWS V14.00,2013-09-17 06:22:00,
2013-09-17 01:27:00,64.6,62.2,30.19,NE,36,2.0,5.0,92,0.00,,---,0.00,VWS V14.00,2013-09-17 06:27:00,
2013-09-17 01:33:00,64.6,62.2,30.19,NNE,30,2.0,6.0,92,0.00,,---,0.00,VWS V14.00,2013-09-17 06:33:00,
2013-09-17 01:38:00,64.6,62.2,30.19,NE,43,3.0,4.0,92,0.00,,---,0.00,VWS V14.00,2013-09-17 06:38:00,
2013-09-17 01:43:00,64.7,62.3,30.19,NNE,23,3.0,6.0,92,0.00,,---,0.00,VWS V14.00,2013-09-17 06:43:00,
2013-09-17 01:48:00,64.7,62.3,30.19,North,1,4.0,5.0,92,0.00,,---,0.00,VWS V14.00,2013-09-17 06:48:00,
2013-09-17 01:53:00,64.7,62.0,30.19,NE,44,3.0,6.0,91,0.00,,---,0.00,VWS V14.00,2013-09-17 06:53:00,
2013-09-17 01:58:00,64.6,61.9,30.19,NNE,18,4.0,6.0,91,0.00,,---,0.00,VWS V14.00,2013-09-17 06:58:00,
2013-09-17 02:03:00,64.6,61.9,30.19,NNE,30,2.0,6.0,91,0.00,,---,0.00,VWS V14.00,2013-09-17 07:03:00,
2013-09-17 02:08:00,64.5,61.8,30.19,North,1,5.0,5.0,91,0.00,,---,0.00,VWS V14.00,2013-09-17 07:08:00,
2013-09-17 02:14:00,64.5,62.1,30.19,NE,34,2.0,6.0,92,0.00,,---,0.00,VWS V14.00,2013-09-17 07:14:00,
2013-09-17 02:19:00,64.5,61.8,30.19,NNE,30,3.0,5.0,91,0.00,,---,0.00,VWS V14.00,2013-09-17 07:19:00,
2013-09-17 02:24:00,64.3,61.9,30.18,NNE,22,4.0,6.0,92,0.00,,---,0.00,VWS V14.00,2013-09-17 07:24:00,
2013-09-17 02:29:00,64.3,61.6,30.18,North,354,4.0,7.0,91,0.00,,---,0.00,VWS V14.00,2013-09-17 07:29:00,
2013-09-17 02:34:00,64.2,61.8,30.18,North,349,2.0,5.0,92,0.00,,---,0.00,VWS V14.00,2013-09-17 07:34:00,
2013-09-17 02:39:00,64.0,61.6,30.18,NNE,18,1.0,5.0,92,0.00,,---,0.00,VWS V14.00,2013-09-17 07:39:00,
2013-09-17 02:44:00,63.9,61.5,30.18,NNE,25,3.0,6.0,92,0.00,,---,0.00,VWS V14.00,2013-09-17 07:44:00,
2013-09-17 02:49:00,63.7,61.3,30.18,North,9,3.0,4.0,92,0.00,,---,0.00,VWS V14.00,2013-09-17 07:49:00,
2013-09-17 02:54:00,63.7,61.3,30.18,NNE,12,2.0,6.0,92,0.00,,---,0.00,VWS V14.00,2013-09-17 07:54:00,
2013-09-17 02:59:00,63.6,61.2,30.18,North,351,3.0,7.0,92,0.00,,---,0.00,VWS V14.00,2013-09-17 07:59:00,
2013-09-17 03:04:00,63.6,61.2,30.18,North,4,3.0,7.0,92,0.00,,---,0.00,VWS V14.00,2013-09-17 08:04:00,
2013-09-17 03:09:00,63.5,61.1,30.18,NNE,27,1.0,5.0,92,0.00,,---,0.00,VWS V14.00,2013-09-17 08:09:00,
2013-09-17 03:14:00,63.4,61.0,30.18,NE,37,2.0,4.0,92,0.00,,---,0.00,VWS V14.00,2013-09-17 08:14:00,
2013-09-17 03:19:00,63.5,61.1,30.18,NNE,27,2.0,4.0,92,0.00,,---,0.00,VWS V14.00,2013-09-17 08:19:00,
2013-09-17 03:24:00,63.5,61.1,30.18,North,359,3.0,5.0,92,0.00,,---,0.00,VWS V14.00,2013-09-17 08:24:00,
2013-09-17 03:29:00,63.5,61.1,30.18,North,11,2.0,6.0,92,0.00,,---,0.00,VWS V14.00,2013-09-17 08:29:00,
2013-09-17 03:34:00,63.4,61.0,30.18,NNE,14,4.0,5.0,92,0.00,,---,0.00,VWS V14.00,2013-09-17 08:34:00,
2013-09-17 03:39:00,63.3,60.9,30.18,NNE,33,2.0,4.0,92,0.00,,---,0.00,VWS V14.00,2013-09-17 08:39:00,
2013-09-17 03:44:00,63.3,60.9,30.18,North,356,2.0,5.0,92,0.00,,---,0.00,VWS V14.00,2013-09-17 08:44:00,
2013-09-17 03:49:00,63.2,60.8,30.17,NE,40,3.0,5.0,92,0.00,,---,0.00,VWS V14.00,2013-09-17 08:49:00,
2013-09-17 03:54:00,63.1,61.0,30.18,NNE,22,3.0,6.0,93,0.00,,---,0.00,VWS V14.00,2013-09-17 08:54:00,
2013-09-17 03:59:00,63.0,61.0,30.17,NNE,17,2.0,7.0,93,0.00,,---,0.00,VWS V14.00,2013-09-17 08:59:00,
2013-09-17 04:04:00,62.8,60.5,30.18,NNW,339,2.0,4.0,92,0.00,,---,0.00,VWS V14.00,2013-09-17 09:04:00,
2013-09-17 04:09:00,62.8,60.8,30.17,NNE,22,4.0,7.0,93,0.00,,---,0.00,VWS V14.00,2013-09-17 09:09:00,
2013-09-17 04:14:00,62.7,60.7,30.17,NNW,342,1.0,5.0,93,0.00,,---,0.00,VWS V14.00,2013-09-17 09:14:00,
2013-09-17 04:19:00,62.6,60.5,30.17,NNW,333,1.0,4.0,93,0.00,,---,0.00,VWS V14.00,2013-09-17 09:19:00,
2013-09-17 04:24:00,62.5,60.5,30.18,North,349,1.0,3.0,93,0.00,,---,0.00,VWS V14.00,2013-09-17 09:24:00,
2013-09-17 04:29:00,62.3,60.2,30.18,North,4,0.0,2.0,93,0.00,,---,0.00,VWS V14.00,2013-09-17 09:29:00,
2013-09-17 04:34:00,62.0,60.0,30.18,North,4,0.0,2.0,93,0.00,,---,0.00,VWS V14.00,2013-09-17 09:34:00,
2013-09-17 04:39:00,61.8,60.1,30.18,North,4,1.0,1.0,94,0.00,,---,0.00,VWS V14.00,2013-09-17 09:39:00,
2013-09-17 04:44:00,61.7,60.0,30.18,NNE,22,2.0,3.0,94,0.00,,---,0.00,VWS V14.00,2013-09-17 09:44:00,
2013-09-17 04:49:00,61.6,59.9,30.18,NNE,12,4.0,4.0,94,0.00,,---,0.00,VWS V14.00,2013-09-17 09:49:00,
2013-09-17 04:54:00,61.6,59.9,30.18,North,360,1.0,4.0,94,0.00,,---,0.00,VWS V14.00,2013-09-17 09:54:00,
2013-09-17 04:59:00,61.6,59.9,30.18,North,349,0.0,2.0,94,0.00,,---,0.00,VWS V14.00,2013-09-17 09:59:00,
2013-09-17 05:04:00,61.4,59.7,30.18,NNW,346,1.0,2.0,94,0.00,,---,0.00,VWS V14.00,2013-09-17 10:04:00,
2013-09-17 05:09:00,61.4,59.7,30.18,NNW,341,1.0,3.0,94,0.00,,---,0.00,VWS V14.00,2013-09-17 10:09:00,
2013-09-17 05:14:00,61.2,59.5,30.18,NNE,21,1.0,4.0,94,0.00,,---,0.00,VWS V14.00,2013-09-17 10:14:00,
2013-09-17 05:19:00,61.1,59.4,30.18,NE,36,2.0,3.0,94,0.00,,---,0.00,VWS V14.00,2013-09-17 10:19:00,
2013-09-17 05:24:00,61.0,59.6,30.18,NE,56,2.0,4.0,95,0.00,,---,0.00,VWS V14.00,2013-09-17 10:24:00,
2013-09-17 05:29:00,61.0,59.6,30.18,NNE,19,3.0,4.0,95,0.00,,---,0.00,VWS V14.00,2013-09-17 10:29:00,
2013-09-17 05:34:00,60.9,59.5,30.18,NNE,15,3.0,6.0,95,0.00,,---,0.00,VWS V14.00,2013-09-17 10:34:00,
2013-09-17 05:39:00,60.9,59.5,30.18,North,353,2.0,6.0,95,0.00,,---,0.00,VWS V14.00,2013-09-17 10:39:00,
2013-09-17 05:44:00,60.8,59.4,30.18,NNE,15,0.0,3.0,95,0.00,,---,0.00,VWS V14.00,2013-09-17 10:44:00,
2013-09-17 05:49:00,60.7,59.3,30.18,North,9,0.0,1.0,95,0.00,,---,0.00,VWS V14.00,2013-09-17 10:49:00,
2013-09-17 05:54:00,60.7,59.3,30.18,North,357,2.0,5.0,95,0.00,,---,0.00,VWS V14.00,2013-09-17 10:54:00,
2013-09-17 05:59:00,60.7,59.3,30.18,North,8,2.0,3.0,95,0.00,,---,0.00,VWS V14.00,2013-09-17 10:59:00,
2013-09-17 06:04:00,60.7,59.3,30.18,NNE,13,5.0,5.0,95,0.00,,---,0.00,VWS V14.00,2013-09-17 11:04:00,
2013-09-17 06:09:00,60.8,59.4,30.18,NNE,21,1.0,5.0,95,0.00,,---,0.00,VWS V14.00,2013-09-17 11:09:00,
2013-09-17 06:14:00,60.8,59.4,30.19,NNE,23,3.0,6.0,95,0.00,,---,0.00,VWS V14.00,2013-09-17 11:14:00,
2013-09-17 06:19:00,60.8,59.4,30.19,NNE,25,4.0,5.0,95,0.00,,---,0.00,VWS V14.00,2013-09-17 11:19:00,
2013-09-17 06:24:00,60.9,59.5,30.19,North,1,4.0,5.0,95,0.00,,---,0.00,VWS V14.00,2013-09-17 11:24:00,
2013-09-17 06:29:00,60.9,59.5,30.19,North,6,3.0,6.0,95,0.00,,---,0.00,VWS V14.00,2013-09-17 11:29:00,
2013-09-17 06:34:00,60.9,59.2,30.19,NNE,29,3.0,5.0,94,0.00,,---,0.00,VWS V14.00,2013-09-17 11:34:00,
2013-09-17 06:39:00,60.9,59.2,30.19,NW,307,4.0,6.0,94,0.00,,---,0.00,VWS V14.00,2013-09-17 11:39:00,
2013-09-17 06:44:00,61.0,59.3,30.20,NNE,30,3.0,7.0,94,0.00,,---,0.00,VWS V14.00,2013-09-17 11:44:00,
2013-09-17 06:49:00,61.1,59.4,30.20,North,9,4.0,9.0,94,0.00,,---,0.00,VWS V14.00,2013-09-17 11:49:00,
2013-09-17 06:54:00,61.1,59.4,30.20,North,9,2.0,7.0,94,0.00,,---,0.00,VWS V14.00,2013-09-17 11:54:00,
2013-09-17 06:59:00,61.1,59.4,30.20,NNE,27,3.0,5.0,94,0.00,,---,0.00,VWS V14.00,2013-09-17 11:59:00,
2013-09-17 07:04:00,61.2,59.5,30.20,NNE,13,3.0,7.0,94,0.00,,---,0.00,VWS V14.00,2013-09-17 12:04:00,
2013-09-17 07:09:00,61.3,59.6,30.20,NNE,23,5.0,9.0,94,0.00,,---,0.00,VWS V14.00,2013-09-17 12:09:00,
2013-09-17 07:14:00,61.5,59.5,30.20,NNE,27,4.0,7.0,93,0.00,,---,0.00,VWS V14.00,2013-09-17 12:14:00,
2013-09-17 07:19:00,61.5,59.5,30.20,NNE,13,9.0,9.0,93,0.00,,---,0.00,VWS V14.00,2013-09-17 12:19:00,
2013-09-17 07:24:00,61.5,59.5,30.20,NNE,30,6.0,10.0,93,0.00,,---,0.00,VWS V14.00,2013-09-17 12:24:00,
2013-09-17 07:29:00,61.6,59.6,30.20,NNE,33,2.0,7.0,93,0.00,,---,0.00,VWS V14.00,2013-09-17 12:29:00,
2013-09-17 07:34:00,61.6,59.6,30.20,NNE,26,3.0,8.0,93,0.00,,---,0.00,VWS V14.00,2013-09-17 12:34:00,
2013-09-17 07:39:00,61.7,59.4,30.20,NNE,19,3.0,10.0,92,0.00,,---,0.00,VWS V14.00,2013-09-17 12:39:00,
2013-09-17 07:44:00,61.8,59.5,30.20,NE,40,5.0,8.0,92,0.00,,---,0.00,VWS V14.00,2013-09-17 12:44:00,
2013-09-17 07:49:00,61.9,59.5,30.20,NNE,23,3.0,7.0,92,0.00,,---,0.00,VWS V14.00,2013-09-17 12:49:00,
2013-09-17 07:54:00,62.2,59.8,30.20,NE,43,3.0,6.0,92,0.00,,---,0.00,VWS V14.00,2013-09-17 12:54:00,
2013-09-17 07:59:00,62.7,60.0,30.20,NW,312,3.0,7.0,91,0.00,,---,0.00,VWS V14.00,2013-09-17 12:59:00,
2013-09-17 08:04:00,63.2,60.2,30.20,NNE,33,8.0,8.0,90,0.00,,---,0.00,VWS V14.00,2013-09-17 13:04:00,
2013-09-17 08:09:00,63.6,60.6,30.20,NNE,25,3.0,8.0,90,0.00,,---,0.00,VWS V14.00,2013-09-17 13:09:00,
2013-09-17 08:14:00,63.5,60.2,30.20,NNE,25,2.0,7.0,89,0.00,,---,0.00,VWS V14.00,2013-09-17 13:14:00,
2013-09-17 08:19:00,63.8,60.5,30.20,ENE,57,6.0,8.0,89,0.00,,---,0.00,VWS V14.00,2013-09-17 13:19:00,
2013-09-17 08:24:00,63.8,60.5,30.20,NNE,26,4.0,8.0,89,0.00,,---,0.00,VWS V14.00,2013-09-17 13:24:00,
2013-09-17 08:29:00,63.9,60.6,30.20,NNE,27,2.0,8.0,89,0.00,,---,0.00,VWS V14.00,2013-09-17 13:29:00,
2013-09-17 08:34:00,64.3,61.0,30.21,NNE,30,1.0,5.0,89,0.00,,---,0.00,VWS V14.00,2013-09-17 13:34:00,
2013-09-17 08:39:00,64.7,61.1,30.21,NE,43,3.0,6.0,88,0.00,,---,0.00,VWS V14.00,2013-09-17 13:39:00,
2013-09-17 08:44:00,64.9,61.3,30.21,NNE,30,6.0,7.0,88,0.00,,---,0.00,VWS V14.00,2013-09-17 13:44:00,
2013-09-17 08:49:00,65.2,61.6,30.21,East,99,3.0,7.0,88,0.00,,---,0.00,VWS V14.00,2013-09-17 13:49:00,
2013-09-17 08:54:00,65.9,62.2,30.21,North,5,3.0,5.0,88,0.00,,---,0.00,VWS V14.00,2013-09-17 13:54:00,
2013-09-17 08:59:00,66.2,61.9,30.21,ENE,69,6.0,8.0,86,0.00,,---,0.00,VWS V14.00,2013-09-17 13:59:00,
2013-09-17 09:04:00,66.5,62.2,30.21,NE,43,2.0,6.0,86,0.00,,---,0.00,VWS V14.00,2013-09-17 14:04:00,
2013-09-17 09:09:00,66.6,62.3,30.21,NE,47,5.0,6.0,86,0.00,,---,0.00,VWS V14.00,2013-09-17 14:09:00,
2013-09-17 09:14:00,66.2,61.6,30.21,NE,45,3.0,8.0,85,0.00,,---,0.00,VWS V14.00,2013-09-17 14:14:00,
2013-09-17 09:19:00,66.5,61.9,30.21,NNE,18,4.0,8.0,85,0.00,,---,0.00,VWS V14.00,2013-09-17 14:19:00,
2013-09-17 09:24:00,67.2,62.2,30.21,ENE,60,3.0,6.0,84,0.00,,---,0.00,VWS V14.00,2013-09-17 14:24:00,
2013-09-17 09:29:00,67.7,62.4,30.21,NE,38,6.0,6.0,83,0.00,,---,0.00,VWS V14.00,2013-09-17 14:29:00,
2013-09-17 09:34:00,68.1,62.8,30.21,NE,47,3.0,7.0,83,0.00,,---,0.00,VWS V14.00,2013-09-17 14:34:00,
2013-09-17 09:39:00,68.4,62.7,30.21,East,91,5.0,6.0,82,0.00,,---,0.00,VWS V14.00,2013-09-17 14:39:00,
2013-09-17 09:44:00,68.4,62.3,30.22,NNE,13,4.0,6.0,81,0.00,,---,0.00,VWS V14.00,2013-09-17 14:44:00,
2013-09-17 09:49:00,68.2,62.5,30.22,NE,43,4.0,6.0,82,0.00,,---,0.00,VWS V14.00,2013-09-17 14:49:00,
2013-09-17 09:54:00,68.8,63.4,30.22,ENE,71,3.0,8.0,83,0.00,,---,0.00,VWS V14.00,2013-09-17 14:54:00,
2013-09-17 09:59:00,69.8,63.7,30.22,NNE,30,4.0,5.0,81,0.00,,---,0.00,VWS V14.00,2013-09-17 14:59:00,
2013-09-17 10:04:00,70.2,63.8,30.22,North,4,3.0,9.0,80,0.00,,---,0.00,VWS V14.00,2013-09-17 15:04:00,
2013-09-17 10:09:00,70.3,63.5,30.22,NNE,15,5.0,9.0,79,0.00,,---,0.00,VWS V14.00,2013-09-17 15:09:00,
2013-09-17 10:14:00,70.8,64.3,30.22,ESE,106,1.0,5.0,80,0.00,,---,0.00,VWS V14.00,2013-09-17 15:14:00,
2013-09-17 10:19:00,71.1,65.0,30.22,ESE,113,1.0,5.0,81,0.00,,---,0.00,VWS V14.00,2013-09-17 15:19:00,
2013-09-17 10:24:00,72.0,64.0,30.21,NNE,27,3.0,8.0,76,0.00,,---,0.00,VWS V14.00,2013-09-17 15:24:00,
2013-09-17 10:29:00,71.9,63.5,30.21,NE,43,1.0,6.0,75,0.00,,---,0.00,VWS V14.00,2013-09-17 15:29:00,
2013-09-17 10:34:00,72.0,64.0,30.21,SE,131,1.0,6.0,76,0.00,,---,0.00,VWS V14.00,2013-09-17 15:34:00,
2013-09-17 10:39:00,72.7,64.3,30.21,NE,40,4.0,8.0,75,0.00,,---,0.00,VWS V14.00,2013-09-17 15:39:00,
2013-09-17 10:44:00,72.5,64.5,30.21,NNE,25,3.0,9.0,76,0.00,,---,0.00,VWS V14.00,2013-09-17 15:44:00,
2013-09-17 10:49:00,72.5,64.1,30.20,NNW,342,4.0,8.0,75,0.00,,---,0.00,VWS V14.00,2013-09-17 15:49:00,
2013-09-17 10:54:00,72.7,64.3,30.20,ESE,111,3.0,8.0,75,0.00,,---,0.00,VWS V14.00,2013-09-17 15:54:00,
2013-09-17 10:59:00,72.8,64.0,30.20,ENE,78,5.0,8.0,74,0.00,,---,0.00,VWS V14.00,2013-09-17 15:59:00,
2013-09-17 11:04:00,73.0,64.2,30.20,East,91,3.0,6.0,74,0.00,,---,0.00,VWS V14.00,2013-09-17 16:04:00,
2013-09-17 11:09:00,73.3,64.1,30.20,East,80,5.0,7.0,73,0.00,,---,0.00,VWS V14.00,2013-09-17 16:09:00,
2013-09-17 11:14:00,73.5,64.3,30.20,NE,41,2.0,8.0,73,0.00,,---,0.00,VWS V14.00,2013-09-17 16:14:00,
2013-09-17 11:19:00,74.0,65.2,30.20,SSE,149,3.0,7.0,74,0.00,,---,0.00,VWS V14.00,2013-09-17 16:19:00,
2013-09-17 11:24:00,74.9,65.3,30.20,NE,53,5.0,7.0,72,0.00,,---,0.00,VWS V14.00,2013-09-17 16:24:00,
2013-09-17 11:29:00,74.9,64.9,30.20,East,82,3.0,8.0,71,0.00,,---,0.00,VWS V14.00,2013-09-17 16:29:00,
2013-09-17 11:34:00,75.0,65.0,30.19,East,82,4.0,7.0,71,0.00,,---,0.00,VWS V14.00,2013-09-17 16:34:00,
2013-09-17 11:39:00,75.1,65.1,30.19,East,89,3.0,7.0,71,0.00,,---,0.00,VWS V14.00,2013-09-17 16:39:00,
2013-09-17 11:44:00,75.5,66.2,30.19,NE,46,0.0,5.0,73,0.00,,---,0.00,VWS V14.00,2013-09-17 16:44:00,
2013-09-17 11:49:00,76.1,65.6,30.19,ENE,73,6.0,7.0,70,0.00,,---,0.00,VWS V14.00,2013-09-17 16:49:00,
2013-09-17 11:54:00,75.9,65.4,30.19,NE,50,4.0,8.0,70,0.00,,---,0.00,VWS V14.00,2013-09-17 16:54:00,
2013-09-17 11:59:00,75.7,64.8,30.19,NE,39,1.0,1.0,69,0.00,,---,0.00,VWS V14.00,2013-09-17 16:59:00,
2013-09-17 12:04:00,76.2,64.9,30.19,NNE,25,5.0,6.0,68,0.00,,---,0.00,VWS V14.00,2013-09-17 17:04:00,
2013-09-17 12:09:00,76.5,65.6,30.18,ENE,78,6.0,7.0,69,0.00,,---,0.00,VWS V14.00,2013-09-17 17:09:00,
2013-09-17 12:14:00,77.0,65.6,30.18,NNE,32,3.0,4.0,68,0.00,,---,0.00,VWS V14.00,2013-09-17 17:14:00,
2013-09-17 12:20:00,77.0,66.1,30.18,ENE,73,2.0,3.0,69,0.00,,---,0.00,VWS V14.00,2013-09-17 17:20:00,
2013-09-17 12:25:00,77.2,65.4,30.18,NE,36,5.0,9.0,67,0.00,,---,0.00,VWS V14.00,2013-09-17 17:25:00,
2013-09-17 12:30:00,76.8,64.6,30.18,East,93,4.0,4.0,66,0.00,,---,0.00,VWS V14.00,2013-09-17 17:30:00,
2013-09-17 12:35:00,77.0,65.2,30.18,North,359,1.0,1.0,67,0.00,,---,0.00,VWS V14.00,2013-09-17 17:35:00,
2013-09-17 12:40:00,78.1,64.9,30.17,NE,37,4.0,6.0,64,0.00,,---,0.00,VWS V14.00,2013-09-17 17:40:00,
2013-09-17 12:45:00,77.8,64.7,30.17,NNE,26,2.0,4.0,64,0.00,,---,0.00,VWS V14.00,2013-09-17 17:45:00,
2013-09-17 12:50:00,78.2,65.5,30.17,NNE,17,4.0,7.0,65,0.00,,---,0.00,VWS V14.00,2013-09-17 17:50:00,
2013-09-17 12:55:00,78.3,64.7,30.16,ESE,107,2.0,5.0,63,0.00,,---,0.00,VWS V14.00,2013-09-17 17:55:00,
2013-09-17 13:01:00,78.6,65.9,30.16,NNE,13,6.0,6.0,65,0.00,,---,0.00,VWS V14.00,2013-09-17 18:01:00,
2013-09-17 13:06:00,79.1,65.4,30.16,NNE,25,6.0,7.0,63,0.00,,---,0.00,VWS V14.00,2013-09-17 18:06:00,
2013-09-17 13:11:00,79.2,65.5,30.16,North,355,7.0,7.0,63,0.00,,---,0.00,VWS V14.00,2013-09-17 18:11:00,
2013-09-17 13:16:00,79.0,65.3,30.16,ESE,111,7.0,9.0,63,0.00,,---,0.00,VWS V14.00,2013-09-17 18:16:00,
2013-09-17 13:21:00,79.1,65.0,30.16,ENE,78,3.0,5.0,62,0.00,,---,0.00,VWS V14.00,2013-09-17 18:21:00,
2013-09-17 13:26:00,79.1,65.4,30.16,NNE,22,6.0,6.0,63,0.00,,---,0.00,VWS V14.00,2013-09-17 18:26:00,
2013-09-17 13:31:00,79.6,65.0,30.16,ENE,64,3.0,6.0,61,0.00,,---,0.00,VWS V14.00,2013-09-17 18:31:00,
2013-09-17 13:37:00,79.4,65.7,30.15,ENE,78,4.0,4.0,63,0.00,,---,0.00,VWS V14.00,2013-09-17 18:37:00,
2013-09-17 13:42:00,79.6,65.0,30.15,ENE,78,3.0,5.0,61,0.00,,---,0.00,VWS V14.00,2013-09-17 18:42:00,
2013-09-17 13:47:00,79.8,65.2,30.15,NNE,16,3.0,6.0,61,0.00,,---,0.00,VWS V14.00,2013-09-17 18:47:00,
2013-09-17 13:52:00,79.5,65.8,30.14,East,82,1.0,9.0,63,0.00,,---,0.00,VWS V14.00,2013-09-17 18:52:00,
2013-09-17 13:57:00,79.6,65.4,30.14,ENE,75,6.0,6.0,62,0.00,,---,0.00,VWS V14.00,2013-09-17 18:57:00,
2013-09-17 14:02:00,80.1,65.9,30.14,WNW,283,0.0,3.0,62,0.00,,---,0.00,VWS V14.00,2013-09-17 19:02:00,
2013-09-17 14:08:00,82.1,66.4,30.13,West,269,1.0,2.0,59,0.00,,---,0.00,VWS V14.00,2013-09-17 19:08:00,
2013-09-17 14:13:00,81.6,66.9,30.13,East,101,5.0,8.0,61,0.00,,---,0.00,VWS V14.00,2013-09-17 19:13:00,
2013-09-17 14:18:00,80.3,65.6,30.13,NNE,22,3.0,7.0,61,0.00,,---,0.00,VWS V14.00,2013-09-17 19:18:00,
2013-09-17 14:23:00,79.9,64.3,30.13,East,83,1.0,6.0,59,0.00,,---,0.00,VWS V14.00,2013-09-17 19:23:00,
2013-09-17 14:28:00,80.4,65.7,30.13,SE,124,1.0,3.0,61,0.00,,---,0.00,VWS V14.00,2013-09-17 19:28:00,
2013-09-17 14:33:00,81.4,66.2,30.12,NE,44,6.0,10.0,60,0.00,,---,0.00,VWS V14.00,2013-09-17 19:33:00,
2013-09-17 14:39:00,81.2,66.9,30.12,North,353,4.0,9.0,62,0.00,,---,0.00,VWS V14.00,2013-09-17 19:39:00,
2013-09-17 14:44:00,81.1,65.4,30.12,ENE,73,1.0,5.0,59,0.00,,---,0.00,VWS V14.00,2013-09-17 19:44:00,
2013-09-17 14:49:00,80.0,65.4,30.12,East,81,3.0,7.0,61,0.00,,---,0.00,VWS V14.00,2013-09-17 19:49:00,
2013-09-17 14:54:00,79.3,63.7,30.12,East,88,1.0,1.0,59,0.00,,---,0.00,VWS V14.00,2013-09-17 19:54:00,
2013-09-17 14:59:00,79.7,64.1,30.12,ENE,76,3.0,5.0,59,0.00,,---,0.00,VWS V14.00,2013-09-17 19:59:00,
2013-09-17 15:04:00,79.8,64.2,30.12,SSE,149,2.0,2.0,59,0.00,,---,0.00,VWS V14.00,2013-09-17 20:04:00,
2013-09-17 15:09:00,80.3,64.7,30.11,SE,139,3.0,3.0,59,0.00,,---,0.00,VWS V14.00,2013-09-17 20:09:00,
2013-09-17 15:14:00,80.2,65.1,30.11,ENE,78,2.0,4.0,60,0.00,,---,0.00,VWS V14.00,2013-09-17 20:14:00,
2013-09-17 15:20:00,80.1,66.4,30.11,NNE,30,2.0,3.0,63,0.00,,---,0.00,VWS V14.00,2013-09-17 20:20:00,
2013-09-17 15:25:00,80.0,64.4,30.11,East,94,0.0,1.0,59,0.00,,---,0.00,VWS V14.00,2013-09-17 20:25:00,
2013-09-17 15:30:00,80.9,64.8,30.11,SSE,153,1.0,2.0,58,0.00,,---,0.00,VWS V14.00,2013-09-17 20:30:00,
2013-09-17 15:35:00,80.9,65.7,30.10,North,5,5.0,5.0,60,0.00,,---,0.00,VWS V14.00,2013-09-17 20:35:00,
2013-09-17 15:40:00,80.8,64.7,30.11,NE,36,0.0,1.0,58,0.00,,---,0.00,VWS V14.00,2013-09-17 20:40:00,
2013-09-17 15:45:00,80.3,63.7,30.10,ENE,72,2.0,5.0,57,0.00,,---,0.00,VWS V14.00,2013-09-17 20:45:00,
2013-09-17 15:51:00,80.5,65.3,30.10,West,260,2.0,3.0,60,0.00,,---,0.00,VWS V14.00,2013-09-17 20:51:00,
2013-09-17 15:56:00,80.5,65.3,30.10,ENE,65,2.0,7.0,60,0.00,,---,0.00,VWS V14.00,2013-09-17 20:56:00,
2013-09-17 16:01:00,80.4,65.3,30.10,SSE,150,0.0,2.0,60,0.00,,---,0.00,VWS V14.00,2013-09-17 21:01:00,
2013-09-17 16:06:00,80.4,64.8,30.10,North,5,3.0,4.0,59,0.00,,---,0.00,VWS V14.00,2013-09-17 21:06:00,
2013-09-17 16:11:00,80.2,66.0,30.10,NNE,13,3.0,4.0,62,0.00,,---,0.00,VWS V14.00,2013-09-17 21:11:00,
2013-09-17 16:16:00,80.0,65.8,30.10,North,6,3.0,4.0,62,0.00,,---,0.00,VWS V14.00,2013-09-17 21:16:00,
2013-09-17 16:22:00,79.9,65.3,30.10,ENE,78,2.0,4.0,61,0.00,,---,0.00,VWS V14.00,2013-09-17 21:22:00,
2013-09-17 16:27:00,79.8,65.6,30.10,NNE,20,1.0,3.0,62,0.00,,---,0.00,VWS V14.00,2013-09-17 21:27:00,
2013-09-17 16:32:00,80.0,66.3,30.10,North,358,1.0,2.0,63,0.00,,---,0.00,VWS V14.00,2013-09-17 21:32:00,
2013-09-17 16:37:00,80.3,65.2,30.10,East,82,2.0,4.0,60,0.00,,---,0.00,VWS V14.00,2013-09-17 21:37:00,
2013-09-17 16:42:00,80.5,66.8,30.09,NNE,28,3.0,3.0,63,0.00,,---,0.00,VWS V14.00,2013-09-17 21:42:00,
2013-09-17 16:47:00,80.6,65.9,30.10,NNE,32,3.0,7.0,61,0.00,,---,0.00,VWS V14.00,2013-09-17 21:47:00,
2013-09-17 16:53:00,80.7,65.5,30.09,East,82,3.0,6.0,60,0.00,,---,0.00,VWS V14.00,2013-09-17 21:53:00,
2013-09-17 16:58:00,80.8,65.6,30.09,NNE,20,4.0,5.0,60,0.00,,---,0.00,VWS V14.00,2013-09-17 21:58:00,
2013-09-17 17:03:00,80.9,66.2,30.09,NNE,18,4.0,9.0,61,0.00,,---,0.00,VWS V14.00,2013-09-17 22:03:00,
2013-09-17 17:08:00,80.7,65.5,30.09,North,11,5.0,10.0,60,0.00,,---,0.00,VWS V14.00,2013-09-17 22:08:00,
2013-09-17 17:13:00,80.7,66.5,30.09,NNE,19,3.0,8.0,62,0.00,,---,0.00,VWS V14.00,2013-09-17 22:13:00,
2013-09-17 17:18:00,80.6,66.8,30.10,NNE,13,5.0,8.0,63,0.00,,---,0.00,VWS V14.00,2013-09-17 22:18:00,
2013-09-17 17:24:00,80.3,66.1,30.09,NNE,19,2.0,7.0,62,0.00,,---,0.00,VWS V14.00,2013-09-17 22:24:00,
2013-09-17 17:29:00,79.9,65.3,30.09,North,349,1.0,6.0,61,0.00,,---,0.00,VWS V14.00,2013-09-17 22:29:00,
2013-09-17 17:34:00,80.0,65.8,30.09,North,5,5.0,6.0,62,0.00,,---,0.00,VWS V14.00,2013-09-17 22:34:00,
2013-09-17 17:39:00,79.8,65.2,30.09,ENE,59,3.0,6.0,61,0.00,,---,0.00,VWS V14.00,2013-09-17 22:39:00,
2013-09-17 17:44:00,79.6,65.4,30.09,North,6,4.0,7.0,62,0.00,,---,0.00,VWS V14.00,2013-09-17 22:44:00,
2013-09-17 17:49:00,79.5,65.3,30.09,NNE,20,2.0,6.0,62,0.00,,---,0.00,VWS V14.00,2013-09-17 22:49:00,
2013-09-17 17:54:00,79.3,65.6,30.09,North,353,3.0,4.0,63,0.00,,---,0.00,VWS V14.00,2013-09-17 22:54:00,
2013-09-17 17:59:00,79.0,66.2,30.09,NNE,25,3.0,5.0,65,0.00,,---,0.00,VWS V14.00,2013-09-17 22:59:00,
2013-09-17 18:04:00,78.5,65.8,30.09,NNE,23,3.0,3.0,65,0.00,,---,0.00,VWS V14.00,2013-09-17 23:04:00,
2013-09-17 18:09:00,78.0,65.7,30.09,North,352,2.0,2.0,66,0.00,,---,0.00,VWS V14.00,2013-09-17 23:09:00,
2013-09-17 18:14:00,77.6,65.8,30.09,NNE,13,2.0,2.0,67,0.00,,---,0.00,VWS V14.00,2013-09-17 23:14:00,
2013-09-17 18:19:00,77.4,66.0,30.09,North,9,2.0,2.0,68,0.00,,---,0.00,VWS V14.00,2013-09-17 23:19:00,
2013-09-17 18:25:00,77.0,65.6,30.09,NNE,12,2.0,3.0,68,0.00,,---,0.00,VWS V14.00,2013-09-17 23:25:00,
2013-09-17 18:30:00,76.5,65.6,30.09,North,354,3.0,3.0,69,0.00,,---,0.00,VWS V14.00,2013-09-17 23:30:00,
2013-09-17 18:35:00,76.2,65.3,30.09,North,349,2.0,3.0,69,0.00,,---,0.00,VWS V14.00,2013-09-17 23:35:00,
2013-09-17 18:40:00,75.9,65.4,30.09,North,349,1.0,1.0,70,0.00,,---,0.00,VWS V14.00,2013-09-17 23:40:00,
2013-09-17 18:45:00,75.5,65.8,30.09,North,352,1.0,1.0,72,0.00,,---,0.00,VWS V14.00,2013-09-17 23:45:00,
2013-09-17 18:51:00,75.1,65.9,30.09,NNE,12,2.0,3.0,73,0.00,,---,0.00,VWS V14.00,2013-09-17 23:51:00,
2013-09-17 18:56:00,74.7,65.5,30.09,NNE,15,2.0,2.0,73,0.00,,---,0.00,VWS V14.00,2013-09-17 23:56:00,
2013-09-17 19:01:00,74.4,65.6,30.09,NNE,15,1.0,3.0,74,0.00,,---,0.00,VWS V14.00,2013-09-18 00:01:00,
2013-09-17 19:06:00,74.0,65.6,30.09,NNE,14,1.0,1.0,75,0.00,,---,0.00,VWS V14.00,2013-09-18 00:06:00,
2013-09-17 19:11:00,73.7,65.3,30.09,North,4,0.0,2.0,75,0.00,,---,0.00,VWS V14.00,2013-09-18 00:11:00,
2013-09-17 19:16:00,73.5,65.5,30.09,North,4,1.0,1.0,76,0.00,,---,0.00,VWS V14.00,2013-09-18 00:16:00,
2013-09-17 19:21:00,73.2,65.6,30.09,North,4,1.0,1.0,77,0.00,,---,0.00,VWS V14.00,2013-09-18 00:21:00,
2013-09-17 19:26:00,72.9,65.3,30.09,North,4,0.0,1.0,77,0.00,,---,0.00,VWS V14.00,2013-09-18 00:26:00,
2013-09-17 19:31:00,72.6,65.0,30.09,North,4,1.0,1.0,77,0.00,,---,0.00,VWS V14.00,2013-09-18 00:31:00,
2013-09-17 19:37:00,72.6,65.3,30.09,North,352,1.0,2.0,78,0.00,,---,0.00,VWS V14.00,2013-09-18 00:37:00,
2013-09-17 19:42:00,72.4,65.2,30.09,North,354,1.0,2.0,78,0.00,,---,0.00,VWS V14.00,2013-09-18 00:42:00,
2013-09-17 19:47:00,72.2,65.0,30.09,North,359,1.0,2.0,78,0.00,,---,0.00,VWS V14.00,2013-09-18 00:47:00,
2013-09-17 19:52:00,72.0,65.1,30.10,North,359,1.0,2.0,79,0.00,,---,0.00,VWS V14.00,2013-09-18 00:52:00,
2013-09-17 19:57:00,71.9,65.0,30.10,North,356,2.0,3.0,79,0.00,,---,0.00,VWS V14.00,2013-09-18 00:57:00,
2013-09-17 20:02:00,71.8,64.9,30.10,North,6,1.0,2.0,79,0.00,,---,0.00,VWS V14.00,2013-09-18 01:02:00,
2013-09-17 20:07:00,71.6,65.1,30.10,North,6,2.0,2.0,80,0.00,,---,0.00,VWS V14.00,2013-09-18 01:07:00,
2013-09-17 20:12:00,71.5,65.0,30.10,North,6,1.0,2.0,80,0.00,,---,0.00,VWS V14.00,2013-09-18 01:12:00,
2013-09-17 20:17:00,71.3,65.2,30.10,NNE,13,1.0,2.0,81,0.00,,---,0.00,VWS V14.00,2013-09-18 01:17:00,
2013-09-17 20:22:00,71.1,65.0,30.10,North,358,1.0,2.0,81,0.00,,---,0.00,VWS V14.00,2013-09-18 01:22:00,
2013-09-17 20:27:00,70.9,65.1,30.10,North,358,1.0,1.0,82,0.00,,---,0.00,VWS V14.00,2013-09-18 01:27:00,
2013-09-17 20:33:00,70.6,64.8,30.10,North,359,1.0,1.0,82,0.00,,---,0.00,VWS V14.00,2013-09-18 01:33:00,
2013-09-17 20:38:00,70.5,64.8,30.10,North,358,1.0,2.0,82,0.00,,---,0.00,VWS V14.00,2013-09-18 01:38:00,
2013-09-17 20:43:00,70.5,65.1,30.10,North,358,0.0,2.0,83,0.00,,---,0.00,VWS V14.00,2013-09-18 01:43:00,
2013-09-17 20:48:00,70.4,65.0,30.10,NNE,13,1.0,3.0,83,0.00,,---,0.00,VWS V14.00,2013-09-18 01:48:00,
2013-09-17 20:53:00,70.0,64.6,30.10,NNE,15,1.0,1.0,83,0.00,,---,0.00,VWS V14.00,2013-09-18 01:53:00,
2013-09-17 20:58:00,69.8,64.8,30.10,NNE,13,1.0,1.0,84,0.00,,---,0.00,VWS V14.00,2013-09-18 01:58:00,
2013-09-17 21:03:00,69.5,64.5,30.10,NNE,13,0.0,0.0,84,0.00,,---,0.00,VWS V14.00,2013-09-18 02:03:00,
2013-09-17 21:08:00,69.2,64.2,30.10,NNE,13,0.0,0.0,84,0.00,,---,0.00,VWS V14.00,2013-09-18 02:08:00,
2013-09-17 21:13:00,68.7,64.0,30.10,NNE,13,1.0,1.0,85,0.00,,---,0.00,VWS V14.00,2013-09-18 02:13:00,
2013-09-17 21:18:00,68.5,63.8,30.11,NNE,13,0.0,0.0,85,0.00,,---,0.00,VWS V14.00,2013-09-18 02:18:00,
2013-09-17 21:23:00,68.4,64.1,30.11,NNE,13,0.0,0.0,86,0.00,,---,0.00,VWS V14.00,2013-09-18 02:23:00,
2013-09-17 21:29:00,68.2,64.2,30.11,NNE,13,0.0,1.0,87,0.00,,---,0.00,VWS V14.00,2013-09-18 02:29:00,
2013-09-17 21:34:00,68.4,64.4,30.11,NNE,13,0.0,1.0,87,0.00,,---,0.00,VWS V14.00,2013-09-18 02:34:00,
2013-09-17 21:43:00,68.1,64.1,30.11,NNE,13,0.0,0.0,87,0.00,,---,0.00,VWS V14.00,2013-09-18 02:43:00,
2013-09-17 21:48:00,67.9,63.9,30.11,NNE,13,0.0,0.0,87,0.00,,---,0.00,VWS V14.00,2013-09-18 02:48:00,
2013-09-17 21:53:00,67.6,63.6,30.11,NNE,13,0.0,0.0,87,0.00,,---,0.00,VWS V14.00,2013-09-18 02:53:00,
2013-09-17 21:59:00,67.4,63.7,30.11,NNE,13,0.0,0.0,88,0.00,,---,0.00,VWS V14.00,2013-09-18 02:59:00,
2013-09-17 22:04:00,67.1,63.8,30.11,NNE,13,0.0,0.0,89,0.00,,---,0.00,VWS V14.00,2013-09-18 03:04:00,
2013-09-17 22:09:00,67.1,64.1,30.11,NNE,13,0.0,1.0,90,0.00,,---,0.00,VWS V14.00,2013-09-18 03:09:00,
2013-09-17 22:14:00,67.5,64.2,30.11,NNE,13,0.0,1.0,89,0.00,,---,0.00,VWS V14.00,2013-09-18 03:14:00,
2013-09-17 22:19:00,67.7,64.0,30.11,NNE,13,0.0,1.0,88,0.00,,---,0.00,VWS V14.00,2013-09-18 03:19:00,
2013-09-17 22:24:00,67.9,64.2,30.11,NNE,13,0.0,1.0,88,0.00,,---,0.00,VWS V14.00,2013-09-18 03:24:00,
2013-09-17 22:29:00,67.9,64.2,30.11,NNE,13,1.0,1.0,88,0.00,,---,0.00,VWS V14.00,2013-09-18 03:29:00,
2013-09-17 22:34:00,67.8,64.1,30.10,NNE,13,0.0,0.0,88,0.00,,---,0.00,VWS V14.00,2013-09-18 03:34:00,
2013-09-17 22:40:00,67.8,64.1,30.10,ENE,74,1.0,2.0,88,0.00,,---,0.00,VWS V14.00,2013-09-18 03:40:00,
2013-09-17 22:45:00,67.8,64.1,30.10,ENE,74,0.0,0.0,88,0.00,,---,0.00,VWS V14.00,2013-09-18 03:45:00,
2013-09-17 22:50:00,67.8,63.8,30.10,NE,49,1.0,1.0,87,0.00,,---,0.00,VWS V14.00,2013-09-18 03:50:00,
2013-09-17 22:55:00,67.9,63.9,30.10,NNE,20,2.0,3.0,87,0.00,,---,0.00,VWS V14.00,2013-09-18 03:55:00,
2013-09-17 23:00:00,68.0,64.0,30.10,North,5,2.0,3.0,87,0.00,,---,0.00,VWS V14.00,2013-09-18 04:00:00,
2013-09-17 23:01:00,68.0,64.0,30.10,North,5,1.0,3.0,87,0.00,,---,0.00,VWS V14.00,2013-09-18 04:01:00,
2013-09-17 23:02:00,68.0,64.0,30.10,North,5,2.0,3.0,87,0.00,,---,0.00,VWS V14.00,2013-09-18 04:02:00,
2013-09-17 23:03:00,68.0,64.0,30.10,North,9,2.0,3.0,87,0.00,,---,0.00,VWS V14.00,2013-09-18 04:03:00,
2013-09-17 23:08:00,67.8,63.8,30.10,North,350,0.0,2.0,87,0.00,,---,0.00,VWS V14.00,2013-09-18 04:08:00,
2013-09-17 23:13:00,67.6,63.6,30.10,North,356,1.0,2.0,87,0.00,,---,0.00,VWS V14.00,2013-09-18 04:13:00,
2013-09-17 23:18:00,67.5,63.5,30.10,NNE,18,1.0,2.0,87,0.00,,---,0.00,VWS V14.00,2013-09-18 04:18:00,
2013-09-17 23:23:00,67.5,63.5,30.10,NNE,18,1.0,2.0,87,0.00,,---,0.00,VWS V14.00,2013-09-18 04:23:00,
2013-09-17 23:28:00,67.5,63.5,30.10,NE,37,2.0,2.0,87,0.00,,---,0.00,VWS V14.00,2013-09-18 04:28:00,
2013-09-17 23:33:00,67.5,63.5,30.10,NE,37,0.0,1.0,87,0.00,,---,0.00,VWS V14.00,2013-09-18 04:33:00,
2013-09-17 23:39:00,67.5,63.5,30.10,NE,37,0.0,1.0,87,0.00,,---,0.00,VWS V14.00,2013-09-18 04:39:00,
2013-09-17 23:44:00,67.4,63.4,30.10,NE,37,0.0,1.0,87,0.00,,---,0.00,VWS V14.00,2013-09-18 04:44:00,
2013-09-17 23:49:00,67.4,63.4,30.10,NE,49,0.0,1.0,87,0.00,,---,0.00,VWS V14.00,2013-09-18 04:49:00,
2013-09-17 23:54:00,67.3,63.3,30.10,NE,41,0.0,1.0,87,0.00,,---,0.00,VWS V14.00,2013-09-18 04:54:00,
2013-09-17 23:59:00,67.1,62.8,30.10,NE,49,0.0,1.0,86,0.00,,---,0.00,VWS V14.00,2013-09-18 04:59:00,